RH
45 28 21 15 12 11 11 10 10 9 8 7 6 5 4 4 4 3 2 2 2 2 2 2 2 2 2 2 2 2 2 3 4 5 8 13 15 30 36 62 76 70 58 38
51 34 20 14 12 10 9 8 7 7 6 5 4 4 4 3 3 3 3 2 2 2 2 2 2 2 2 2 2 3 4 4 6 8 8 13 20 38 64 69 81 91 92 81
76 31 26 18 12 10 8 6 6 6 5 5 5 4 4 4 4 3 2 2 3 3 3 3 2 3 3 3 3 3 4 4 6 9 11 17 32 40 70 84 75 91 100 99
99 43 29 19 15 12 10 8 8 9 10 10 8 7 7 6 4 5 5 4 4 3 3 3 3 3 4 4 4 4 4 5 6 8 9 12 26 43 58 74 95 81 99 100
100 100 49 25 20 16 14 11 12 14 14 14 14 12 11 11 10 9 7 7 5 4 4 4 4 4 5 5 6 6 6 8 9 12 11 11 12 15 23 40 56 61 59 68
74 100 100 45 28 23 18 18 16 15 16 18 19 19 17 16 14 13 10 9 10 9 8 8 8 10 9 9 8 8 8 9 10 12 14 15 14 14 13 14 15 13 21 20
42 89 100 94 47 33 26 21 20 21 18 17 18 20 20 19 19 18 18 16 15 14 16 16 15 16 16 15 14 14 14 14 16 17 17 15 16 15 16 19 19 19 19 21
38 60 100 100 99 56 41 33 29 26 25 24 26 27 26 24 24 25 26 26 25 25 25 25 24 22 23 24 23 22 22 23 27 25 26 26 25 26 27 27 27 26 24 24
68 48 74 100 100 100 80 50 42 39 33 32 31 34 37 38 39 39 38 41 40 40 40 41 39 36 34 34 32 32 33 34 30 33 37 43 42 38 35 32 34 33 36 39
74 62 58 96 95 100 100 90 64 49 46 42 39 39 41 42 42 44 48 49 49 50 48 49 50 50 51 51 51 51 47 45 45 44 44 44 42 39 36 36 35 40 43 42
60 72 69 58 75 94 100 100 97 78 62 53 51 48 49 50 47 47 48 51 52 54 56 55 53 54 55 58 60 61 60 57 56 52 52 52 48 45 46 46 46 45 50 52
53 40 66 69 67 76 90 98 100 100 95 81 66 59 55 53 54 60 63 65 65 63 63 64 63 61 60 60 60 59 61 61 61 63 62 63 58 56 55 54 53 51 51 53
44 45 55 74 99 69 69 94 96 98 100 100 93 85 75 72 70 70 66 71 72 76 83 80 76 76 76 76 74 73 70 69 67 64 64 64 64 65 64 62 60 57 56 58
34 51 50 58 71 79 78 81 89 88 94 98 99 90 94 98 100 92 88 87 83 85 89 90 85 83 83 85 83 84 85 87 86 82 77 76 77 81 79 80 76 70 64 61
39 48 53 50 64 81 73 59 97 96 82 96 99 100 89 94 100 100 99 93 92 93 88 89 85 83 80 79 76 74 78 79 79 85 90 89 86 78 81 82 78 85 81 79
53 64 55 44 56 72 65 86 67 78 100 93 99 100 100 96 92 99 100 99 97 91 89 90 84 78 76 77 76 75 75 76 80 76 75 79 83 82 80 80 77 73 78 76
62 59 61 70 55 63 62 58 82 71 55 84 100 100 100 100 100 93 98 100 100 100 91 87 85 81 76 70 68 66 66 68 76 81 81 80 75 76 77 79 78 74 73 66
90 76 74 66 74 72 65 68 67 72 48 68 96 98 100 99 100 99 92 97 100 98 99 91 85 83 91 86 84 79 66 61 64 64 67 78 80 77 76 75 73 74 72 73
76 89 86 70 91 95 57 69 65 52 50 38 88 100 99 100 100 92 94 95 90 94 96 83 88 82 85 90 96 100 99 85 80 77 74 63 65 71 76 76 76 75 74 71
100 99 97 92 90 100 60 66 77 48 40 48 40 69 100 100 94 100 100 93 83 91 95 76 97 100 67 94 80 97 100 100 100 98 93 89 72 70 68 74 79 84 94 93
100 99 98 100 100 86 54 66 67 67 55 45 45 35 40 72 98 96 100 100 94 70 80 79 87 100 62 100 94 73 74 93 99 100 100 100 100 98 91 92 77 77 83 98
100 100 100 100 88 90 69 86 55 59 53 38 36 35 27 24 44 77 95 98 89 77 74 73 89 100 87 85 98 100 95 82 82 97 100 100 100 100 100 100 100 96 95 99
100 100 94 100 100 100 83 65 57 48 63 37 28 26 33 24 20 34 53 83 96 87 78 74 93 100 100 88 90 85 75 85 89 77 98 100 100 99 100 100 100 100 97 89
100 100 98 94 100 100 73 65 67 62 64 32 25 21 20 23 18 17 18 50 73 87 89 86 100 100 100 98 94 89 93 80 77 95 82 91 100 100 100 100 100 100 100 100
94 99 100 100 100 100 87 70 62 61 51 21 21 20 17 17 17 14 14 14 52 72 98 93 97 100 100 100 98 82 75 88 87 94 91 78 72 100 100 97 99 100 100 100
91 100 100 100 100 100 95 70 59 56 47 39 18 19 15 14 13 12 10 13 16 72 82 80 84 98 98 99 100 89 74 80 79 96 100 100 89 76 97 95 93 100 100 100
99 100 100 100 100 100 94 74 65 54 49 30 14 14 12 12 12 13 13 17 20 14 57 72 69 84 94 100 100 99 84 81 79 88 100 100 100 97 91 86 85 97 100 100
Wind_Speed
66 60 57 53 51 48 47 46 46 44 43 41 40 37 35 32 30 27 24 21 18 17 12 9 7 8 7 6 6 7 10 11 15 20 29 30 31 36 34 33 28 24 21 21
67 58 54 49 46 45 44 45 44 42 41 39 37 36 35 33 30 28 24 22 21 20 17 13 12 11 12 13 13 14 18 17 22 26 30 35 37 38 36 32 33 28 23 19
70 57 55 49 44 42 42 42 45 45 45 42 40 38 36 35 30 28 29 28 26 24 19 16 18 18 21 22 20 19 22 21 25 28 30 37 38 39 36 33 29 27 22 20
62 55 51 41 36 39 37 42 44 46 47 46 42 42 41 36 34 41 36 30 28 25 24 26 26 28 30 28 27 26 26 27 25 25 29 33 38 38 38 36 33 30 29 26
57 58 53 41 41 37 37 39 45 46 50 51 50 51 51 49 48 46 44 41 36 37 38 37 37 37 38 37 35 30 33 34 32 26 22 21 25 29 34 34 35 33 33 36
54 55 51 44 37 36 35 37 39 41 46 50 52 53 54 54 55 53 50 50 50 49 50 51 52 51 49 46 43 41 39 38 38 34 31 26 23 20 16 15 12 13 18 16
51 49 45 45 40 37 32 32 33 39 41 44 48 51 51 52 53 54 55 55 56 56 59 59 59 59 57 55 53 52 50 50 50 43 41 35 31 29 27 24 20 18 17 14
58 40 41 42 42 35 36 34 32 32 35 38 42 45 45 46 47 49 50 52 53 55 56 56 58 58 58 57 57 55 55 55 55 50 48 43 39 39 40 39 35 33 30 28
76 46 34 36 38 36 33 32 31 30 30 32 35 39 42 43 44 45 46 48 48 50 51 52 53 53 52 54 53 52 51 49 47 47 47 48 45 42 40 38 35 34 34 32
89 69 39 29 30 33 33 30 26 24 24 25 27 29 32 34 35 38 39 40 41 41 42 44 45 46 46 47 47 46 44 43 42 40 40 38 38 38 34 34 32 29 26 26
83 79 68 39 28 27 30 30 26 21 19 18 19 20 22 24 25 27 30 30 31 32 32 33 35 35 37 38 37 37 37 36 35 35 34 32 32 29 29 27 28 25 23 20
73 80 78 59 33 28 24 26 26 24 21 18 14 13 15 16 16 18 20 21 22 23 24 24 25 26 26 27 27 27 27 27 27 26 25 24 24 24 24 23 23 20 18 14
81 78 78 71 71 42 30 23 24 25 25 21 17 13 13 14 14 13 13 13 14 15 16 16 16 17 17 18 18 18 17 18 17 18 18 17 17 17 16 15 16 15 15 13
81 76 83 72 69 53 31 31 28 24 25 25 23 20 17 15 14 12 11 10 8 8 9 10 10 10 10 10 11 11 11 11 10 9 9 9 10 11 12 12 12 11 12 13
86 78 79 75 74 70 56 32 33 34 28 27 27 25 22 18 17 14 11 10 9 7 6 6 7 8 9 10 10 10 10 10 9 9 8 7 5 4 5 7 11 12 13 14
87 77 86 82 78 73 61 61 48 40 40 34 29 27 26 24 20 17 14 10 9 7 6 5 5 6 7 8 9 10 12 13 12 13 13 13 12 10 7 9 10 13 15 18
81 82 81 78 80 72 77 72 69 42 46 44 40 34 30 29 27 24 20 16 13 11 10 9 8 8 9 9 11 11 11 11 13 14 15 14 14 13 12 12 13 17 20 22
80 83 82 86 81 77 83 75 70 52 37 49 51 47 43 37 34 33 29 25 21 18 16 15 14 13 12 12 14 15 15 15 16 17 16 15 16 14 13 16 19 21 23 25
84 82 88 87 82 77 89 79 71 58 41 39 54 60 54 48 43 41 38 34 30 26 24 22 20 22 17 17 14 17 19 21 22 23 23 21 21 20 20 21 24 25 27 28
78 81 84 87 86 83 101 87 82 70 47 43 49 59 64 61 55 48 46 44 40 34 34 29 21 29 26 24 22 18 21 22 23 24 27 29 27 27 28 28 29 31 32 33
80 86 87 84 89 96 102 92 91 76 69 50 50 56 62 70 65 61 54 50 49 44 41 39 32 36 32 22 31 26 25 23 24 25 29 31 33 34 34 36 38 38 38 39
90 88 85 93 100 95 101 98 99 84 73 64 50 57 60 64 71 69 66 60 54 52 49 45 37 54 47 37 35 32 30 29 26 26 27 29 32 35 37 38 41 43 41 43
94 92 96 95 96 97 106 109 99 91 73 66 54 52 60 62 64 70 73 69 63 57 56 50 49 62 56 48 45 42 41 38 35 31 30 30 31 34 37 39 42 45 46 51
97 98 102 100 96 101 108 107 105 94 88 69 60 58 57 63 67 64 66 74 72 64 59 59 67 67 63 57 50 46 45 44 44 42 38 36 36 39 40 41 42 47 51 55
104 102 98 96 100 104 109 108 105 96 86 68 62 59 55 59 64 68 63 66 73 72 72 71 69 71 70 66 57 51 46 46 47 44 45 43 41 42 45 45 46 49 53 59
105 101 97 96 101 106 107 108 103 94 87 80 68 65 60 59 62 64 67 62 66 80 84 82 77 76 75 70 65 53 53 52 49 47 47 49 49 46 48 49 49 51 57 62
101 99 104 106 107 107 106 104 97 93 87 79 69 72 69 56 56 59 65 67 75 78 85 86 83 81 79 74 68 60 58 58 52 50 48 51 54 54 53 53 52 54 60 67
Wind_Direction
20 23 31 40 49 59 69 75 79 81 86 88 90 94 94 97 97 99 102 104 105 100 102 90 76 65 80 102 113 126 124 135 141 143 136 133 132 123 122 116 107 118 130 146
18 19 27 35 45 55 61 68 72 75 78 81 85 88 88 89 91 94 96 99 96 86 75 78 75 90 96 103 112 118 118 134 130 130 135 132 127 124 123 116 113 112 118 137
17 18 20 26 35 46 53 63 70 72 74 76 77 80 84 86 90 96 93 87 86 84 83 89 94 96 98 96 103 110 120 124 124 126 132 132 126 126 122 124 127 124 132 137
19 17 14 21 34 36 56 66 69 70 70 70 74 78 80 85 85 80 82 86 88 92 98 93 96 95 95 96 99 101 107 109 116 129 135 137 134 135 137 136 136 147 152 160
16 19 15 22 38 44 55 67 72 74 76 76 75 78 79 81 84 88 90 87 88 90 90 89 88 90 92 94 94 96 102 103 105 109 115 130 141 147 152 152 156 161 166 172
18 14 18 17 31 43 49 62 75 79 82 82 82 82 83 84 85 84 86 90 88 89 89 88 87 87 86 88 90 91 92 98 100 97 95 96 101 104 104 113 141 168 180 193
18 14 15 18 22 29 39 55 65 76 80 83 85 86 85 86 87 87 87 87 87 87 86 87 87 86 84 84 85 88 89 89 88 91 92 95 98 100 102 106 111 117 124 148
16 19 9 13 17 21 22 34 45 59 72 78 80 80 79 80 81 81 82 80 80 82 82 81 83 84 86 84 81 81 79 80 83 85 84 83 85 89 92 94 93 95 100 105
15 12 11 4 8 13 15 22 31 45 53 64 72 77 78 78 75 74 74 75 77 77 76 75 78 79 81 81 81 79 79 78 80 81 84 88 86 87 87 89 88 88 86 86
14 15 2 353 356 1 5 11 21 30 36 45 57 68 72 76 79 77 74 71 71 71 71 72 73 74 74 76 77 78 80 80 81 83 81 78 81 84 82 74 71 75 79 84
9 13 12 352 342 346 352 357 1 6 16 27 34 42 57 63 71 75 76 76 74 72 72 72 72 73 74 74 74 74 75 76 77 81 81 79 80 80 82 82 75 70 74 84
359 6 12 16 344 326 331 338 345 347 347 355 11 22 33 38 48 58 68 71 72 72 72 72 73 74 74 75 75 74 75 76 75 78 80 79 79 80 86 87 88 89 86 80
352 356 7 9 6 344 312 313 323 331 332 333 333 345 352 359 7 19 36 52 59 63 64 62 62 60 63 67 71 72 73 70 71 67 68 69 72 71 72 74 76 70 71 66
347 352 357 3 3 5 327 304 303 306 316 321 322 320 318 322 330 337 347 2 18 34 37 45 50 52 47 52 54 53 50 51 53 51 55 52 47 43 37 32 36 34 31 26
340 341 347 353 358 1 355 320 290 292 294 301 307 307 309 305 305 306 309 315 322 335 351 6 28 39 43 49 42 41 38 26 18 11 6 13 10 7 5 1 355 354 356 359
333 337 341 345 350 355 356 355 334 285 282 281 285 292 294 295 292 289 284 283 293 302 307 328 359 25 34 31 27 29 30 25 19 9 359 352 346 339 316 330 340 331 334 339
326 331 331 337 341 347 348 348 345 322 285 274 271 272 275 280 280 280 278 271 271 278 284 288 303 321 337 346 357 354 358 3 2 0 356 343 340 333 321 308 311 321 331 333
322 325 328 332 335 339 341 340 337 334 298 271 267 265 264 267 270 271 268 266 266 266 269 274 284 292 304 319 325 333 336 341 347 348 345 344 345 336 323 319 318 318 324 325
317 319 322 328 329 329 335 334 336 331 309 284 261 259 258 256 258 264 266 265 261 260 261 265 274 277 279 283 295 306 315 321 328 331 333 332 335 337 336 330 327 323 324 322
309 313 318 320 323 322 324 327 334 323 317 297 274 260 253 255 252 249 257 262 262 260 259 263 264 276 275 276 270 276 291 301 310 318 325 324 325 328 328 325 325 324 317 316
305 310 311 315 316 319 320 320 324 325 314 303 281 269 261 252 250 249 246 250 258 260 261 268 263 261 275 269 276 270 268 277 288 297 304 311 316 319 320 320 321 322 319 315
301 305 306 309 311 315 314 315 321 322 317 303 286 275 269 264 256 251 249 245 248 257 260 261 263 258 269 269 266 271 273 272 271 279 290 296 299 307 313 314 313 315 315 312
300 298 301 306 309 308 309 312 314 319 314 301 287 278 271 270 263 259 253 248 246 249 256 261 259 258 262 269 274 269 266 268 270 273 280 287 291 297 300 307 306 308 309 311
295 296 299 302 302 303 304 308 312 315 311 302 293 287 278 269 267 266 258 253 250 247 248 251 252 256 259 264 268 269 266 272 275 274 274 277 284 289 292 297 301 303 304 306
292 294 295 298 299 300 303 305 307 310 308 302 301 293 286 274 267 266 266 259 249 249 246 246 249 254 257 259 263 266 264 269 272 275 273 277 279 283 285 289 295 302 306 304
289 290 290 291 294 296 299 301 307 307 305 306 303 298 294 278 268 260 264 264 253 243 245 246 246 250 256 260 262 261 265 269 271 273 274 277 282 283 287 290 295 299 302 304
287 286 286 291 293 295 298 302 304 304 303 302 300 295 293 289 273 258 253 251 251 246 241 245 248 247 251 255 258 260 261 266 269 270 274 279 282 283 286 287 292 297 301 303